• In Austria
  • List of Countries
  • For 7 days
  • Water Temperature
  • Satellite Maps
  • Weather Map
  • News
  • Weather Widgets
  • user-avatar
    Login

    Hourly Weather Kaprun

    Today, 25 February, Sunday

    Time Temperature Precipitation Wind Pressure Humidity
    00:00 -17°C° 0 mm 2 mps 589 mmHg 91%
    01:00 -18°C° 0 mm 2 mps 589 mmHg 89%
    02:00 -19°C° 0 mm 2 mps 588 mmHg 90%
    03:00 -19°C° 0 mm 2 mps 588 mmHg 90%
    04:00 -20°C° 0 mm 2 mps 588 mmHg 91%
    05:00 -20°C° 0 mm 2 mps 588 mmHg 92%
    06:00 -21°C° 0 mm 2 mps 587 mmHg 92%
    07:00 -23°C° 0 mm 2 mps 587 mmHg 93%
    08:00 -20°C° 0 mm 2 mps 588 mmHg 89%
    09:00 -19°C° 0 mm 2 mps 588 mmHg 86%
    10:00 -17°C° 0 mm 2 mps 589 mmHg 82%
    11:00 -16°C° 0 mm 2 mps 589 mmHg 80%
    12:00 -15°C° 0 mm 2 mps 589 mmHg 77%
    13:00 -15°C° 0 mm 2 mps 590 mmHg 75%
    14:00 -15°C° 0 mm 2 mps 589 mmHg 78%
    15:00 -15°C° 0 mm 2 mps 589 mmHg 81%
    16:00 -16°C° 0 mm 2 mps 588 mmHg 84%
    17:00 -18°C° 0.1 mm 2 mps 588 mmHg 88%
    18:00 -19°C° 0.1 mm 2 mps 587 mmHg 91%
    19:00 -21°C° 0.1 mm 2 mps 587 mmHg 95%
    20:00 -23°C° 0 mm 2 mps 586 mmHg 95%
    21:00 -24°C° 0 mm 2 mps 586 mmHg 95%
    22:00 -22°C° 0 mm 1 mps 586 mmHg 95%
    23:00 -26°C° 0 mm 2 mps 586 mmHg 95%

    Tomorrow, 26 February, Monday

    Time Temperature Precipitation Wind Pressure Humidity
    00:00 -26°C° 0 mm 2 mps 585 mmHg 95%
    01:00 -27°C° 0 mm 2 mps 585 mmHg 94%
    02:00 -27°C° 0 mm 2 mps 585 mmHg 94%
    03:00 -28°C° 0 mm 2 mps 584 mmHg 94%
    04:00 -28°C° 0 mm 2 mps 584 mmHg 94%
    05:00 -28°C° 0 mm 2 mps 584 mmHg 94%
    06:00 -29°C° 0 mm 2 mps 584 mmHg 94%
    07:00 -29°C° 0 mm 2 mps 583 mmHg 94%
    08:00 -27°C° 0 mm 2 mps 584 mmHg 90%
    09:00 -25°C° 0 mm 2 mps 585 mmHg 86%
    10:00 -23°C° 0 mm 2 mps 586 mmHg 83%
    11:00 -21°C° 0 mm 2 mps 586 mmHg 82%
    12:00 -20°C° 0 mm 2 mps 586 mmHg 80%
    13:00 -19°C° 0 mm 2 mps 586 mmHg 79%
    14:00 -19°C° 0.1 mm 2 mps 586 mmHg 81%
    15:00 -20°C° 0.1 mm 2 mps 586 mmHg 82%
    16:00 -20°C° 0.1 mm 2 mps 585 mmHg 84%
    17:00 -21°C° 0.1 mm 2 mps 585 mmHg 87%
    18:00 -24°C° 0.1 mm 2 mps 585 mmHg 91%
    19:00 -25°C° 0.1 mm 2 mps 584 mmHg 94%
    20:00 -26°C° 0.1 mm 2 mps 584 mmHg 94%
    21:00 -26°C° 0.1 mm 2 mps 584 mmHg 94%
    22:00 -27°C° 0.1 mm 2 mps 584 mmHg 95%
    23:00 -27°C° 0 mm 2 mps 583 mmHg 94%

    Day after tomorrow, 27 February, Tuesday

    Time Temperature Precipitation Wind Pressure Humidity
    00:00 -27°C° 0 mm 2 mps 583 mmHg 94%
    01:00 -28°C° 0 mm 2 mps 583 mmHg 93%
    02:00 -28°C° 0 mm 2 mps 583 mmHg 93%
    03:00 -28°C° 0 mm 2 mps 582 mmHg 93%
    04:00 -28°C° 0 mm 2 mps 582 mmHg 93%
    05:00 -28°C° 0 mm 2 mps 582 mmHg 93%
    06:00 -29°C° 0 mm 2 mps 582 mmHg 93%
    07:00 -29°C° 0 mm 2 mps 582 mmHg 93%
    08:00 -24°C° 0 mm 1 mps 582 mmHg 90%
    09:00 -21°C° 0 mm 1 mps 583 mmHg 87%
    10:00 -19°C° 0 mm 1 mps 584 mmHg 84%
    11:00 -18°C° 0 mm 1 mps 585 mmHg 81%
    12:00 -17°C° 0 mm 1 mps 585 mmHg 78%
    13:00 -17°C° 0 mm 1 mps 585 mmHg 75%
    14:00 -17°C° 0.1 mm 1 mps 585 mmHg 77%
    15:00 -17°C° 0.1 mm 1 mps 585 mmHg 80%
    16:00 -17°C° 0.1 mm 1 mps 585 mmHg 83%
    17:00 -18°C° 0.1 mm 1 mps 584 mmHg 87%
    18:00 -20°C° 0.1 mm 1 mps 584 mmHg 91%
    19:00 -21°C° 0.1 mm 1 mps 584 mmHg 95%
    20:00 -22°C° 0 mm 1 mps 583 mmHg 95%
    21:00 -23°C° 0 mm 1 mps 583 mmHg 95%
    22:00 -23°C° 0 mm 1 mps 583 mmHg 94%
    23:00 -24°C° 0 mm 1 mps 583 mmHg 93%

    28 February, Wednesday

    Time Temperature Precipitation Wind Pressure Humidity
    00:00 -24°C° 0 mm 1 mps 583 mmHg 92%
    01:00 -25°C° 0 mm 1 mps 583 mmHg 91%
    02:00 -25°C° 0 mm 1 mps 583 mmHg 90%
    03:00 -25°C° 0 mm 1 mps 583 mmHg 89%
    04:00 -25°C° 0 mm 1 mps 583 mmHg 88%
    05:00 -25°C° 0 mm 1 mps 583 mmHg 88%
    06:00 -25°C° 0 mm 1 mps 583 mmHg 87%
    07:00 -25°C° 0 mm 1 mps 583 mmHg 86%
    08:00 -22°C° 0 mm 1 mps 585 mmHg 81%
    09:00 -19°C° 0 mm 1 mps 586 mmHg 75%
    10:00 -16°C° 0 mm 1 mps 588 mmHg 70%
    11:00 -15°C° 0 mm 1 mps 588 mmHg 66%
    12:00 -14°C° 0 mm 1 mps 588 mmHg 61%
    13:00 -13°C° 0 mm 1 mps 589 mmHg 57%
    14:00 -13°C° 0 mm 1 mps 589 mmHg 62%
    15:00 -13°C° 0 mm 1 mps 589 mmHg 68%
    16:00 -13°C° 0 mm 1 mps 589 mmHg 74%
    17:00 -15°C° 0 mm 1 mps 588 mmHg 80%
    18:00 -17°C° 0 mm 1 mps 587 mmHg 86%
    19:00 -19°C° 0 mm 1 mps 586 mmHg 92%
    20:00 -19°C° 0 mm 1 mps 586 mmHg 91%
    21:00 -23°C° 0 mm 2 mps 586 mmHg 90%
    22:00 -23°C° 0 mm 2 mps 587 mmHg 89%
    23:00 -23°C° 0 mm 2 mps 586 mmHg 88%

    1 March, Thursday

    Time Temperature Precipitation Wind Pressure Humidity
    00:00 -23°C° 0 mm 2 mps 586 mmHg 86%
    01:00 -23°C° 0 mm 2 mps 586 mmHg 85%
    02:00 -21°C° 0 mm 2 mps 586 mmHg 84%
    03:00 -21°C° 0 mm 2 mps 585 mmHg 83%
    04:00 -21°C° 0 mm 2 mps 585 mmHg 83%
    05:00 -20°C° 0 mm 2 mps 585 mmHg 82%
    06:00 -20°C° 0 mm 2 mps 585 mmHg 82%
    07:00 -19°C° 0 mm 2 mps 585 mmHg 82%
    08:00 -17°C° 0 mm 2 mps 586 mmHg 80%
    09:00 -14°C° 0 mm 2 mps 587 mmHg 79%
    10:00 -12°C° 0 mm 2 mps 587 mmHg 77%
    11:00 -12°C° 0 mm 3 mps 587 mmHg 78%
    12:00 -9°C° 0 mm 3 mps 587 mmHg 80%
    13:00 -8°C° 0 mm 3 mps 588 mmHg 81%
    14:00 -8°C° 0 mm 3 mps 587 mmHg 84%
    15:00 -7°C° 0 mm 2 mps 587 mmHg 86%
    16:00 -8°C° 0 mm 2 mps 587 mmHg 88%
    17:00 -9°C° 0 mm 2 mps 586 mmHg 90%
    18:00 -9°C° 0 mm 2 mps 586 mmHg 91%
    19:00 -10°C° 0 mm 2 mps 586 mmHg 93%
    20:00 -10°C° 0 mm 2 mps 586 mmHg 92%
    21:00 -12°C° 0 mm 2 mps 585 mmHg 92%
    22:00 -12°C° 0 mm 2 mps 585 mmHg 91%
    23:00 -12°C° 0 mm 2 mps 585 mmHg 91%

    2 March, Friday

    Time Temperature Precipitation Wind Pressure Humidity
    00:00 -12°C° 0 mm 2 mps 584 mmHg 91%
    01:00 -12°C° 0 mm 2 mps 584 mmHg 91%
    02:00 -12°C° 0 mm 2 mps 584 mmHg 91%
    03:00 -12°C° 0 mm 2 mps 583 mmHg 91%
    04:00 -10°C° 0 mm 2 mps 583 mmHg 91%
    05:00 -10°C° 0 mm 2 mps 583 mmHg 91%
    06:00 -10°C° 0 mm 2 mps 583 mmHg 91%
    07:00 -10°C° 0 mm 2 mps 583 mmHg 91%
    08:00 -8°C° 0.1 mm 2 mps 583 mmHg 91%
    09:00 -6°C° 0.1 mm 2 mps 584 mmHg 92%
    10:00 -4°C° 0.1 mm 2 mps 585 mmHg 92%
    11:00 -3°C° 0.1 mm 2 mps 585 mmHg 93%
    12:00 -3°C° 0.1 mm 2 mps 585 mmHg 94%
    13:00 -2°C° 0.1 mm 2 mps 585 mmHg 96%
    14:00 -2°C° 0.1 mm 2 mps 585 mmHg 96%
    15:00 0°C° 0.1 mm 1 mps 585 mmHg 97%
    16:00 0°C° 0.1 mm 1 mps 585 mmHg 97%
    17:00 -1°C° 0.2 mm 1 mps 585 mmHg 97%
    18:00 -3°C° 0.2 mm 0 mps 585 mmHg 97%
    19:00 -4°C° 0.2 mm 0 mps 585 mmHg 97%
    20:00 -4°C° 0.2 mm 0 mps 585 mmHg 96%
    21:00 -4°C° 0.2 mm 0 mps 585 mmHg 95%
    22:00 -4°C° 0.2 mm 0 mps 585 mmHg 94%
    23:00 -3°C° 0.2 mm 1 mps 585 mmHg 94%
    Show more